This is the latest recevied weather packets stored in our database for station/object WB6TTB. If no packets are shown the sender has not sent any weather packets the latest 1 day(s).
| Time | Temp. | Humidity | Pressure | Rain* | Wind** | Luminosity | Snow |
|---|---|---|---|---|---|---|---|
| 1777979163 | 10° C | 96% | 1013.5 hPa | 0 mm | 0 m/s | - | - |
| 1777978804 | 10° C | 96% | 1013.6 hPa | 0 mm | 0 m/s | - | - |
| 1777978444 | 10° C | 96% | 1013.7 hPa | 0 mm | 0 m/s | - | - |
| 1777978084 | 10° C | 96% | 1013.7 hPa | 0 mm | 0 m/s | - | - |
| 1777977364 | 10° C | 96% | 1013.7 hPa | 0 mm | 0 m/s | - | - |
| 1777976644 | 10° C | 96% | 1013.7 hPa | 0 mm | 0 m/s | - | - |
| 1777976284 | 10° C | 96% | 1013.7 hPa | 0 mm | 0 m/s | - | - |
| 1777975924 | 10° C | 96% | 1013.5 hPa | 0.25 mm | 0 m/s | - | - |
| 1777975564 | 10° C | 96% | 1013.5 hPa | 0.25 mm | 0 m/s | - | - |
| 1777975204 | 10° C | 96% | 1013.6 hPa | 0.25 mm | 0 m/s | - | - |
| 1777973763 | 10° C | 96% | 1013.8 hPa | 0.25 mm | 0 m/s | - | - |
| 1777973403 | 10° C | 96% | 1013.8 hPa | 0.25 mm | 0 m/s | - | - |
| 1777973043 | 10° C | 96% | 1013.9 hPa | 0.25 mm | 0 m/s | - | - |
| 1777972683 | 10° C | 96% | 1013.9 hPa | 0.25 mm | 0 m/s | - | - |
| 1777972332 | 10° C | 96% | 1014 hPa | 0 mm | 0 m/s | - | - |
| 1777971963 | 10° C | 96% | 1014.2 hPa | 0.25 mm | 0 m/s | - | - |
| 1777971243 | 10° C | 96% | 1014.1 hPa | 0.25 mm | 0 m/s | - | - |
| 1777970523 | 10° C | 96% | 1014.3 hPa | 1.02 mm | 0 m/s | - | - |
| 1777969804 | 10° C | 96% | 1014.3 hPa | 1.78 mm | 0 m/s | - | - |
| 1777969444 | 10° C | 96% | 1014.3 hPa | 1.78 mm | 0 m/s | - | - |
| 1777969084 | 10° C | 96% | 1014.3 hPa | 2.03 mm | 0 m/s | - | - |
| 1777968724 | 10° C | 96% | 1014.4 hPa | 2.03 mm | 0 m/s | - | - |
| 1777968004 | 10° C | 96% | 1014.4 hPa | 1.78 mm | 0 m/s | - | - |
* Rain latest hour (hover to see other rain measurements)
** Current wind speed in m/s (hover to see current wind gust speed)